Location: St. Louis
(38.6270°N, 90.1994°W)
Time: 20:48:45
(UTC-06:00)

A-11 Canister half - Pass Details

Date: 02 December 2021
Orbit: 1524 x 1684 km, 47.3° (Epoch: 26 January)

Event Time Altitude Azimuth Distance (km) Brightness Sun altitude
Exits shadow 03:57:32 56° 342° (NNW) 1,929 9.2 -35.2°
Maximum altitude 03:57:51 56° 348° (NNW) 1,925 9.3 -35.1°
Drops below altitude 10° 04:07:35 10° 66° (ENE) 3,864 11.8 -33.2°
Sets 04:10:47 0° 71° (ENE) 4,829 12.5 -32.6°
